Location: Allos
(44.2333°N, 6.6333°E)
Time: 13:00:07
(UTC+00:00)

SL-23 DEB - Pass Details

Date: 01 December 2020
Orbit: 425 x 3627 km, 51.4° (Epoch: 26 January)

Event Time Altitude Azimuth Distance (km) Brightness Sun altitude
Rises 16:43:24 0° 226° (SW) 2,405 8.6 -8.5°
Reaches altitude 10° 16:45:12 10° 222° (SW) 1,618 7.4 -8.8°
Maximum altitude 16:48:34 59° 141° (SE) 661 4.1 -9.3°
Enters shadow 16:53:02 13° 63° (ENE) 2,180 6.2 -10.1°
